Time,TemperatureF,DewpointF,PressureIn,WindDirection,WindDirectionDegrees,WindSpeedMPH,WindSpeedGustMPH,Humidity,HourlyPrecipIn,Conditions,Clouds,dailyrainin,SoftwareType,DateUTC
2013-02-01 00:00:00,44.2,38.7,30.11,WSW,244,0.0,0.0,81,0.00,,,0.00,Wunderground v.1.15,2013-02-01 08:00:00,
2013-02-01 00:10:00,43.8,38.0,30.11,WSW,244,0.0,0.0,80,0.00,,,0.00,Wunderground v.1.15,2013-02-01 08:10:00,
2013-02-01 00:20:00,43.3,37.5,30.11,WSW,244,0.0,0.0,80,0.00,,,0.00,Wunderground v.1.15,2013-02-01 08:20:00,
2013-02-01 00:30:00,42.8,37.1,30.11,WSW,244,0.0,0.0,80,0.00,,,0.00,Wunderground v.1.15,2013-02-01 08:30:00,
2013-02-01 00:40:00,42.5,36.8,30.11,WSW,244,0.0,0.0,80,0.00,,,0.00,Wunderground v.1.15,2013-02-01 08:40:00,
2013-02-01 00:50:00,42.1,36.7,30.11,WSW,244,0.0,0.0,81,0.00,,,0.00,Wunderground v.1.15,2013-02-01 08:50:00,
2013-02-01 01:00:00,41.6,36.2,30.11,WSW,244,0.0,0.0,81,0.00,,,0.00,Wunderground v.1.15,2013-02-01 09:00:00,
2013-02-01 01:10:00,41.2,35.8,30.11,WSW,244,0.0,0.0,81,0.00,,,0.00,Wunderground v.1.15,2013-02-01 09:10:00,
2013-02-01 01:20:00,40.6,35.2,30.11,WSW,244,0.0,0.0,81,0.00,,,0.00,Wunderground v.1.15,2013-02-01 09:20:00,
2013-02-01 01:30:00,40.2,34.8,30.11,WSW,244,0.0,0.0,81,0.00,,,0.00,Wunderground v.1.15,2013-02-01 09:30:00,
2013-02-01 01:40:00,39.9,34.5,30.11,WSW,244,0.0,0.0,81,0.00,,,0.00,Wunderground v.1.15,2013-02-01 09:40:00,
2013-02-01 01:50:00,39.8,34.8,30.11,WSW,244,0.0,0.0,82,0.00,,,0.00,Wunderground v.1.15,2013-02-01 09:50:00,
2013-02-01 02:00:00,39.6,34.6,30.10,WSW,244,0.0,0.0,82,0.00,,,0.00,Wunderground v.1.15,2013-02-01 10:00:00,
2013-02-01 02:10:00,39.3,34.6,30.10,WSW,244,0.0,0.0,83,0.00,,,0.00,Wunderground v.1.15,2013-02-01 10:10:00,
2013-02-01 02:20:00,39.1,34.4,30.11,WSW,244,0.0,0.0,83,0.00,,,0.00,Wunderground v.1.15,2013-02-01 10:20:00,
2013-02-01 02:30:00,38.8,34.1,30.11,WSW,244,0.0,0.0,83,0.00,,,0.00,Wunderground v.1.15,2013-02-01 10:30:00,
2013-02-01 02:40:00,38.5,33.8,30.11,WSW,244,0.0,0.0,83,0.00,,,0.00,Wunderground v.1.15,2013-02-01 10:40:00,
2013-02-01 02:50:00,38.2,33.5,30.11,WSW,244,0.0,0.0,83,0.00,,,0.00,Wunderground v.1.15,2013-02-01 10:50:00,
2013-02-01 03:00:00,37.9,33.2,30.11,WSW,244,0.0,0.0,83,0.00,,,0.00,Wunderground v.1.15,2013-02-01 11:00:00,
2013-02-01 03:10:00,37.8,33.1,30.11,WSW,244,0.0,0.0,83,0.00,,,0.00,Wunderground v.1.15,2013-02-01 11:10:00,
2013-02-01 03:20:00,37.5,33.1,30.10,WSW,244,0.0,0.0,84,0.00,,,0.00,Wunderground v.1.15,2013-02-01 11:20:00,
2013-02-01 03:30:00,37.3,32.9,30.10,WSW,244,0.0,0.0,84,0.00,,,0.00,Wunderground v.1.15,2013-02-01 11:30:00,
2013-02-01 03:40:00,37.2,32.8,30.10,WSW,244,0.0,0.0,84,0.00,,,0.00,Wunderground v.1.15,2013-02-01 11:40:00,
2013-02-01 03:50:00,36.9,32.5,30.10,WSW,244,0.0,0.0,84,0.00,,,0.00,Wunderground v.1.15,2013-02-01 11:50:00,
2013-02-01 04:00:00,36.6,32.5,30.10,WSW,244,0.0,0.0,85,0.00,,,0.00,Wunderground v.1.15,2013-02-01 12:00:00,
2013-02-01 04:10:00,36.6,32.5,30.10,WSW,244,0.0,0.0,85,0.00,,,0.00,Wunderground v.1.15,2013-02-01 12:10:00,
2013-02-01 04:20:00,36.5,32.4,30.10,WSW,244,0.0,0.0,85,0.00,,,0.00,Wunderground v.1.15,2013-02-01 12:20:00,
2013-02-01 04:30:00,36.3,32.5,30.10,WSW,244,0.0,0.0,86,0.00,,,0.00,Wunderground v.1.15,2013-02-01 12:30:00,
2013-02-01 04:40:00,36.2,32.4,30.10,WSW,244,0.0,0.0,86,0.00,,,0.00,Wunderground v.1.15,2013-02-01 12:40:00,
2013-02-01 04:50:00,36.2,32.4,30.11,WSW,244,0.0,0.0,86,0.00,,,0.00,Wunderground v.1.15,2013-02-01 12:50:00,
2013-02-01 05:00:00,36.2,32.4,30.11,WSW,244,0.0,0.0,86,0.00,,,0.00,Wunderground v.1.15,2013-02-01 13:00:00,
2013-02-01 05:10:00,36.0,32.2,30.11,WSW,244,0.0,0.0,86,0.00,,,0.00,Wunderground v.1.15,2013-02-01 13:10:00,
2013-02-01 05:20:00,36.0,32.5,30.11,WSW,244,0.0,0.0,87,0.00,,,0.00,Wunderground v.1.15,2013-02-01 13:20:00,
2013-02-01 05:30:00,36.0,32.5,30.11,WSW,244,0.0,0.0,87,0.00,,,0.00,Wunderground v.1.15,2013-02-01 13:30:00,
2013-02-01 05:40:00,36.0,32.5,30.11,WSW,244,0.0,0.0,87,0.00,,,0.00,Wunderground v.1.15,2013-02-01 13:40:00,
2013-02-01 05:50:00,35.9,32.4,30.11,WSW,244,0.0,0.0,87,0.00,,,0.00,Wunderground v.1.15,2013-02-01 13:50:00,
2013-02-01 06:00:00,35.9,32.4,30.11,WSW,244,0.0,0.0,87,0.00,,,0.00,Wunderground v.1.15,2013-02-01 14:00:00,
2013-02-01 06:10:00,35.8,32.3,30.11,WSW,244,0.0,0.0,87,0.00,,,0.00,Wunderground v.1.15,2013-02-01 14:10:00,
2013-02-01 06:20:00,35.5,32.0,30.12,WSW,244,0.0,0.0,87,0.00,,,0.00,Wunderground v.1.15,2013-02-01 14:20:00,
2013-02-01 06:30:00,35.2,31.7,30.12,WSW,244,0.0,0.0,87,0.00,,,0.00,Wunderground v.1.15,2013-02-01 14:30:00,
2013-02-01 06:40:00,34.9,31.4,30.12,WSW,244,0.0,0.0,87,0.00,,,0.00,Wunderground v.1.15,2013-02-01 14:40:00,
2013-02-01 06:50:00,34.6,31.4,30.13,WSW,244,0.0,0.0,88,0.00,,,0.00,Wunderground v.1.15,2013-02-01 14:50:00,
2013-02-01 07:00:00,34.6,31.4,30.13,WSW,244,0.0,0.0,88,0.00,,,0.00,Wunderground v.1.15,2013-02-01 15:00:00,
2013-02-01 07:10:00,34.6,31.4,30.13,WSW,244,0.0,0.0,88,0.00,,,0.00,Wunderground v.1.15,2013-02-01 15:10:00,
2013-02-01 07:20:00,34.7,31.5,30.14,WSW,244,0.0,0.0,88,0.00,,,0.00,Wunderground v.1.15,2013-02-01 15:20:00,
2013-02-01 07:30:00,35.0,31.8,30.13,WSW,244,0.0,0.0,88,0.00,,,0.00,Wunderground v.1.15,2013-02-01 15:30:00,
2013-02-01 07:40:00,35.3,32.4,30.13,WSW,244,0.0,0.0,89,0.00,,,0.00,Wunderground v.1.15,2013-02-01 15:40:00,
2013-02-01 07:50:00,35.6,32.7,30.13,WSW,244,0.0,0.0,89,0.00,,,0.00,Wunderground v.1.15,2013-02-01 15:50:00,
2013-02-01 08:00:00,36.2,33.3,30.14,WSW,244,0.0,0.0,89,0.00,,,0.00,Wunderground v.1.15,2013-02-01 16:00:00,
2013-02-01 08:10:00,38.5,36.1,30.14,WSW,244,0.0,0.0,91,0.00,,,0.00,Wunderground v.1.15,2013-02-01 16:10:00,
2013-02-01 08:20:00,40.2,37.5,30.14,WSW,244,0.0,0.0,90,0.00,,,0.00,Wunderground v.1.15,2013-02-01 16:20:00,
2013-02-01 08:30:00,40.5,37.8,30.14,WSW,244,0.0,0.0,90,0.00,,,0.00,Wunderground v.1.15,2013-02-01 16:30:00,
2013-02-01 08:40:00,43.2,40.8,30.14,WSW,244,0.0,0.0,91,0.00,,,0.00,Wunderground v.1.15,2013-02-01 16:40:00,
2013-02-01 08:50:00,45.7,42.9,30.14,WSW,244,0.0,0.0,90,0.00,,,0.00,Wunderground v.1.15,2013-02-01 16:50:00,
2013-02-01 09:00:00,46.7,42.4,30.14,WSW,244,0.0,0.0,85,0.00,,,0.00,Wunderground v.1.15,2013-02-01 17:00:00,
2013-02-01 09:10:00,47.7,41.8,30.14,WSW,244,0.0,0.0,80,0.00,,,0.00,Wunderground v.1.15,2013-02-01 17:10:00,
2013-02-01 09:20:00,48.9,41.7,30.14,WSW,244,0.0,0.0,76,0.00,,,0.00,Wunderground v.1.15,2013-02-01 17:20:00,
2013-02-01 09:30:00,49.5,42.2,30.14,WSW,244,0.0,0.0,76,0.00,,,0.00,Wunderground v.1.15,2013-02-01 17:30:00,
2013-02-01 09:40:00,52.9,43.4,30.14,WSW,244,0.0,0.0,70,0.00,,,0.00,Wunderground v.1.15,2013-02-01 17:40:00,
2013-02-01 09:50:00,54.5,43.0,30.13,WSW,244,0.0,0.0,65,0.00,,,0.00,Wunderground v.1.15,2013-02-01 17:50:00,
2013-02-01 10:00:00,56.6,43.7,30.14,WSW,244,0.0,0.0,62,0.00,,,0.00,Wunderground v.1.15,2013-02-01 18:00:00,
2013-02-01 10:10:00,54.5,41.7,30.14,WSW,244,0.0,0.0,62,0.00,,,0.00,Wunderground v.1.15,2013-02-01 18:10:00,
2013-02-01 10:20:00,57.0,42.8,30.13,WSW,244,0.0,0.0,59,0.00,,,0.00,Wunderground v.1.15,2013-02-01 18:20:00,
2013-02-01 10:30:00,56.2,42.9,30.13,WSW,244,0.0,0.0,61,0.00,,,0.00,Wunderground v.1.15,2013-02-01 18:30:00,
2013-02-01 10:40:00,57.3,44.0,30.13,WSW,244,0.0,0.0,61,0.00,,,0.00,Wunderground v.1.15,2013-02-01 18:40:00,
2013-02-01 10:50:00,58.7,44.0,30.13,WSW,244,0.0,0.0,58,0.00,,,0.00,Wunderground v.1.15,2013-02-01 18:50:00,
2013-02-01 11:00:00,62.0,44.2,30.13,WSW,244,0.0,0.0,52,0.00,,,0.00,Wunderground v.1.15,2013-02-01 19:00:00,
2013-02-01 11:10:00,58.3,43.6,30.13,WSW,244,2.0,2.0,58,0.00,,,0.00,Wunderground v.1.15,2013-02-01 19:10:00,
2013-02-01 11:20:00,58.0,44.2,30.13,WSW,244,2.0,2.0,60,0.00,,,0.00,Wunderground v.1.15,2013-02-01 19:20:00,
2013-02-01 11:30:00,58.9,44.1,30.13,WSW,244,1.0,5.0,58,0.00,,,0.00,Wunderground v.1.15,2013-02-01 19:30:00,
2013-02-01 11:40:00,59.0,44.2,30.13,WSW,244,2.0,2.0,58,0.00,,,0.00,Wunderground v.1.15,2013-02-01 19:40:00,
2013-02-01 11:50:00,59.6,43.9,30.11,WSW,244,1.0,1.0,56,0.00,,,0.00,Wunderground v.1.15,2013-02-01 19:50:00,
2013-02-01 12:00:00,60.5,45.2,30.11,WSW,244,1.0,1.0,57,0.00,,,0.00,Wunderground v.1.15,2013-02-01 20:00:00,
2013-02-01 12:10:00,61.0,45.2,30.11,WSW,244,2.0,5.0,56,0.00,,,0.00,Wunderground v.1.15,2013-02-01 20:10:00,
2013-02-01 12:20:00,60.4,46.0,30.11,WSW,244,2.0,2.0,59,0.00,,,0.00,Wunderground v.1.15,2013-02-01 20:20:00,
2013-02-01 12:30:00,60.9,46.0,30.10,WSW,244,2.0,5.0,58,0.00,,,0.00,Wunderground v.1.15,2013-02-01 20:30:00,
2013-02-01 12:40:00,62.4,47.0,30.10,WSW,244,1.0,1.0,57,0.00,,,0.00,Wunderground v.1.15,2013-02-01 20:40:00,
2013-02-01 12:50:00,63.4,45.5,30.09,WSW,244,1.0,1.0,52,0.00,,,0.00,Wunderground v.1.15,2013-02-01 20:50:00,
2013-02-01 13:00:00,66.1,44.7,30.08,WSW,244,1.0,1.0,46,0.00,,,0.00,Wunderground v.1.15,2013-02-01 21:00:00,
2013-02-01 13:10:00,67.8,45.1,30.08,WSW,244,0.0,1.0,44,0.00,,,0.00,Wunderground v.1.15,2013-02-01 21:10:00,
2013-02-01 13:20:00,64.2,45.2,30.08,WSW,244,0.0,0.0,50,0.00,,,0.00,Wunderground v.1.15,2013-02-01 21:20:00,
2013-02-01 13:30:00,66.4,45.5,30.07,WSW,244,0.0,0.0,47,0.00,,,0.00,Wunderground v.1.15,2013-02-01 21:30:00,
2013-02-01 13:40:00,64.5,43.8,30.07,WSW,244,1.0,1.0,47,0.00,,,0.00,Wunderground v.1.15,2013-02-01 21:40:00,
2013-02-01 13:50:00,64.5,44.9,30.06,WSW,244,0.0,0.0,49,0.00,,,0.00,Wunderground v.1.15,2013-02-01 21:50:00,
2013-02-01 14:00:00,68.8,46.6,30.06,WSW,244,0.0,0.0,45,0.00,,,0.00,Wunderground v.1.15,2013-02-01 22:00:00,
2013-02-01 14:10:00,71.5,45.9,30.06,WSW,244,0.0,0.0,40,0.00,,,0.00,Wunderground v.1.15,2013-02-01 22:10:00,
2013-02-01 14:20:00,70.9,44.0,30.05,WSW,244,0.0,0.0,38,0.00,,,0.00,Wunderground v.1.15,2013-02-01 22:20:00,
2013-02-01 14:30:00,70.4,43.6,30.05,WSW,244,0.0,0.0,38,0.00,,,0.00,Wunderground v.1.15,2013-02-01 22:30:00,
2013-02-01 14:40:00,70.8,43.9,30.05,WSW,244,0.0,0.0,38,0.00,,,0.00,Wunderground v.1.15,2013-02-01 22:40:00,
2013-02-01 14:50:00,70.6,43.7,30.05,WSW,244,0.0,0.0,38,0.00,,,0.00,Wunderground v.1.15,2013-02-01 22:50:00,
2013-02-01 15:00:00,71.1,42.8,30.05,WSW,244,0.0,0.0,36,0.00,,,0.00,Wunderground v.1.15,2013-02-01 23:00:00,
2013-02-01 15:10:00,71.1,43.5,30.05,WSW,244,0.0,0.0,37,0.00,,,0.00,Wunderground v.1.15,2013-02-01 23:10:00,
2013-02-01 15:20:00,71.1,44.2,30.05,WSW,244,0.0,0.0,38,0.00,,,0.00,Wunderground v.1.15,2013-02-01 23:20:00,
2013-02-01 15:30:00,70.1,44.6,30.05,WSW,244,0.0,0.0,40,0.00,,,0.00,Wunderground v.1.15,2013-02-01 23:30:00,
2013-02-01 15:40:00,70.1,44.0,30.05,WSW,244,0.0,0.0,39,0.00,,,0.00,Wunderground v.1.15,2013-02-01 23:40:00,
2013-02-01 15:50:00,69.4,44.0,30.05,WSW,244,0.0,0.0,40,0.00,,,0.00,Wunderground v.1.15,2013-02-01 23:50:00,
2013-02-01 16:00:00,67.9,44.6,30.04,WSW,244,0.0,0.0,43,0.00,,,0.00,Wunderground v.1.15,2013-02-02 00:00:00,
2013-02-01 16:10:00,67.4,44.1,30.04,WSW,244,0.0,0.0,43,0.00,,,0.00,Wunderground v.1.15,2013-02-02 00:10:00,
2013-02-01 16:20:00,66.4,43.8,30.04,WSW,244,0.0,0.0,44,0.00,,,0.00,Wunderground v.1.15,2013-02-02 00:20:00,
2013-02-01 16:30:00,65.3,45.1,30.04,WSW,244,0.0,1.0,48,0.00,,,0.00,Wunderground v.1.15,2013-02-02 00:30:00,
2013-02-01 16:40:00,64.5,44.4,30.04,WSW,244,1.0,1.0,48,0.00,,,0.00,Wunderground v.1.15,2013-02-02 00:40:00,
2013-02-01 16:50:00,64.3,45.8,30.04,WSW,244,0.0,0.0,51,0.00,,,0.00,Wunderground v.1.15,2013-02-02 00:50:00,
2013-02-01 17:00:00,65.0,45.9,30.03,WSW,244,0.0,0.0,50,0.00,,,0.00,Wunderground v.1.15,2013-02-02 01:00:00,
2013-02-01 17:10:00,65.0,45.4,30.03,WSW,244,0.0,0.0,49,0.00,,,0.00,Wunderground v.1.15,2013-02-02 01:10:00,
2013-02-01 17:20:00,64.8,45.2,30.03,WSW,244,0.0,0.0,49,0.00,,,0.00,Wunderground v.1.15,2013-02-02 01:20:00,
2013-02-01 17:30:00,63.2,45.8,30.05,WSW,244,0.0,1.0,53,0.00,,,0.00,Wunderground v.1.15,2013-02-02 01:30:00,
2013-02-01 17:40:00,61.3,45.5,30.05,WSW,244,1.0,1.0,56,0.00,,,0.00,Wunderground v.1.15,2013-02-02 01:40:00,
2013-02-01 17:50:00,59.8,45.4,30.05,WSW,244,0.0,0.0,59,0.00,,,0.00,Wunderground v.1.15,2013-02-02 01:50:00,
2013-02-01 18:00:00,58.0,45.5,30.07,WSW,244,1.0,1.0,63,0.00,,,0.00,Wunderground v.1.15,2013-02-02 02:00:00,
2013-02-01 18:10:00,57.3,44.8,30.07,WSW,244,0.0,0.0,63,0.00,,,0.00,Wunderground v.1.15,2013-02-02 02:10:00,
2013-02-01 18:20:00,57.0,44.5,30.07,WSW,244,0.0,0.0,63,0.00,,,0.00,Wunderground v.1.15,2013-02-02 02:20:00,
2013-02-01 18:30:00,56.7,44.7,30.08,WSW,244,0.0,0.0,64,0.00,,,0.00,Wunderground v.1.15,2013-02-02 02:30:00,
2013-02-01 18:40:00,56.5,44.9,30.08,WSW,244,0.0,0.0,65,0.00,,,0.00,Wunderground v.1.15,2013-02-02 02:40:00,
2013-02-01 18:50:00,56.2,44.6,30.08,WSW,244,0.0,0.0,65,0.00,,,0.00,Wunderground v.1.15,2013-02-02 02:50:00,
2013-02-01 19:00:00,55.7,44.1,30.09,WSW,244,0.0,0.0,65,0.00,,,0.00,Wunderground v.1.15,2013-02-02 03:00:00,
2013-02-01 19:10:00,54.8,43.7,30.09,WSW,244,0.0,0.0,66,0.00,,,0.00,Wunderground v.1.15,2013-02-02 03:10:00,
2013-02-01 19:20:00,53.5,43.6,30.10,WSW,244,0.0,0.0,69,0.00,,,0.00,Wunderground v.1.15,2013-02-02 03:20:00,
2013-02-01 19:30:00,53.1,43.2,30.11,WSW,244,0.0,0.0,69,0.00,,,0.00,Wunderground v.1.15,2013-02-02 03:30:00,
2013-02-01 19:40:00,52.6,43.1,30.11,WSW,244,0.0,0.0,70,0.00,,,0.00,Wunderground v.1.15,2013-02-02 03:40:00,
2013-02-01 19:50:00,52.3,42.8,30.11,WSW,244,0.0,0.0,70,0.00,,,0.00,Wunderground v.1.15,2013-02-02 03:50:00,
2013-02-01 20:00:00,52.0,43.3,30.11,WSW,244,0.0,0.0,72,0.00,,,0.00,Wunderground v.1.15,2013-02-02 04:00:00,
2013-02-01 20:10:00,51.7,43.0,30.11,WSW,244,0.0,0.0,72,0.00,,,0.00,Wunderground v.1.15,2013-02-02 04:10:00,
2013-02-01 20:20:00,51.4,42.7,30.11,WSW,244,0.0,0.0,72,0.00,,,0.00,Wunderground v.1.15,2013-02-02 04:20:00,
2013-02-01 20:30:00,51.0,42.3,30.11,WSW,244,0.0,0.0,72,0.00,,,0.00,Wunderground v.1.15,2013-02-02 04:30:00,
2013-02-01 20:40:00,50.8,42.5,30.11,WSW,244,0.0,0.0,73,0.00,,,0.00,Wunderground v.1.15,2013-02-02 04:40:00,
2013-02-01 20:50:00,50.2,42.2,30.11,WSW,244,0.0,0.0,74,0.00,,,0.00,Wunderground v.1.15,2013-02-02 04:50:00,
2013-02-01 21:00:00,49.9,42.3,30.12,WSW,244,0.0,0.0,75,0.00,,,0.00,Wunderground v.1.15,2013-02-02 05:00:00,
2013-02-01 21:10:00,49.6,42.3,30.12,WSW,244,0.0,0.0,76,0.00,,,0.00,Wunderground v.1.15,2013-02-02 05:10:00,
2013-02-01 21:20:00,49.2,42.3,30.13,WSW,244,1.0,1.0,77,0.00,,,0.00,Wunderground v.1.15,2013-02-02 05:20:00,
2013-02-01 21:30:00,48.6,42.0,30.13,WSW,244,1.0,1.0,78,0.00,,,0.00,Wunderground v.1.15,2013-02-02 05:30:00,
2013-02-01 21:40:00,48.2,42.0,30.13,WSW,244,0.0,0.0,79,0.00,,,0.00,Wunderground v.1.15,2013-02-02 05:40:00,
2013-02-01 21:50:00,48.0,41.8,30.13,WSW,244,0.0,0.0,79,0.00,,,0.00,Wunderground v.1.15,2013-02-02 05:50:00,
2013-02-01 22:00:00,48.0,42.1,30.13,WSW,244,0.0,0.0,80,0.00,,,0.00,Wunderground v.1.15,2013-02-02 06:00:00,
2013-02-01 22:10:00,48.2,42.6,30.13,WSW,244,1.0,1.0,81,0.00,,,0.00,Wunderground v.1.15,2013-02-02 06:10:00,
2013-02-01 22:20:00,48.3,42.4,30.12,WSW,244,0.0,1.0,80,0.00,,,0.00,Wunderground v.1.15,2013-02-02 06:20:00,
2013-02-01 22:30:00,48.5,42.6,30.13,WSW,244,0.0,0.0,80,0.00,,,0.00,Wunderground v.1.15,2013-02-02 06:30:00,
2013-02-01 22:40:00,48.5,42.3,30.13,WSW,244,0.0,0.0,79,0.00,,,0.00,Wunderground v.1.15,2013-02-02 06:40:00,
2013-02-01 22:50:00,47.9,41.7,30.13,WSW,244,0.0,0.0,79,0.00,,,0.00,Wunderground v.1.15,2013-02-02 06:50:00,
2013-02-01 23:00:00,47.1,40.6,30.13,WSW,244,0.0,0.0,78,0.00,,,0.00,Wunderground v.1.15,2013-02-02 07:00:00,
2013-02-01 23:10:00,46.7,40.5,30.13,WSW,244,1.0,1.0,79,0.00,,,0.00,Wunderground v.1.15,2013-02-02 07:10:00,
2013-02-01 23:20:00,46.4,40.6,30.13,WSW,244,0.0,0.0,80,0.00,,,0.00,Wunderground v.1.15,2013-02-02 07:20:00,
2013-02-01 23:30:00,46.1,40.6,30.13,WSW,244,0.0,0.0,81,0.00,,,0.00,Wunderground v.1.15,2013-02-02 07:30:00,
2013-02-01 23:40:00,46.1,40.9,30.13,WSW,244,0.0,0.0,82,0.00,,,0.00,Wunderground v.1.15,2013-02-02 07:40:00,
2013-02-01 23:50:00,46.0,40.8,30.13,WSW,244,0.0,0.0,82,0.00,,,0.00,Wunderground v.1.15,2013-02-02 07:50:00,